Regional Weather Roundup
Issued by NWS Northern Indiana

Home | Current Version | Previous Version | Text Only | Print | Product List | Glossary On
Versions: 1 2 3 4 5 6 7 8 9 10 11 12 13 14 15 16 17 18 19 20 21 22 23 24 25 26 27 28 29 30 31 32 33 34 35 36 37 38 39 40 41 42 43 44 45 46 47 48 49 50
000
ASUS43 KIWX 232310
RWRIWX

KIWX WEATHER ROUNDUP
NATIONAL WEATHER SERVICE NORTHERN INDIANA
700 PM EDT FRI JUN 23 2017

NOTE: "FAIR" INDICATES FEW OR NO CLOUDS BELOW 12,000 FEET WITH NO
SIGNIFICANT WEATHER AND/OR OBSTRUCTIONS TO VISIBILITY.

* THESE STATIONS ARE NOT UNDER NWS QUALITY CONTROL. THEY ALSO MAY NOT
  REPORT WEATHER SUCH AS PRECIPITATION OR FOG.

INZ001>027-240000-
NORTHERN INDIANA

CITY           SKY/WX    TMP DP  RH WIND       PRES   REMARKS
GARY*          PTSUNNY   79  45  29 CALM      29.72F
VALPARAISO     SUNNY     81  50  33 N6        29.73S
MICHIGAN CITY* SUNNY     75  54  46 N3        29.72F
LAPORTE*       SUNNY     75  52  43 N7        29.73S
KNOX*          MOSUNNY   73  43  33 N6        29.72S
SOUTH BEND     CLOUDY    74  52  46 NW8       29.72F
ELKHART*       CLOUDY    75  50  41 NW6       29.73R
GOSHEN         MOSUNNY   75  51  43 NW8       29.72R
MONTICELLO*    CLOUDY    76  53  45 N8        29.73S
LOGANSPORT*    CLOUDY    73  55  53 NW9       29.74R
ROCHESTER*     CLOUDY    77  52  41 N9        29.73S
WARSAW*        CLOUDY    73  54  49 NW10G16   29.73R
AUBURN*        PTSUNNY   72  55  56 NW12      29.70F
FORT WAYNE     CLOUDY    73  61  65 NW10      29.70F
HUNTINGTON*    CLOUDY    72  62  71 NW5       29.71S
PERU/GRISSOM   MOSUNNY   74  60  62 N13       29.72R
MARION*        CLOUDY    72  61  68 N10G16    29.73R

$$
INZ028>050-240000-
CENTRAL INDIANA

CITY           SKY/WX    TMP DP  RH WIND       PRES   REMARKS
LAFAYETTE      CLOUDY    75  58  55 N6        29.73S
KOKOMO*        CLOUDY    73  59  61 NW16      29.74R
MUNCIE*        CLOUDY    73  67  81 NW12      29.71S
INDIANAPOLIS   CLOUDY    72  65  78 N13       29.71S

$$
MIZ043>046-050>051-056>058-064>065-071>073-077>080-240000-
SOUTHWEST LOWER MICHIGAN

CITY           SKY/WX    TMP DP  RH WIND       PRES   REMARKS
BATTLE CREEK   MOSUNNY   76  56  49 W13       29.70R
BENTON HARBOR  SUNNY     75  56  51 W6        29.71F
COLDWATER*     MOSUNNY   73  52  48 NW7       29.70S
HILLSDALE*     CLOUDY    72  55  56 W13       29.68S
HOLLAND        SUNNY     76  54  46 W8        29.70S
GRAND RAPIDS   PTSUNNY   77  43  29 NW21G29   29.67S
KALAMAZOO      CLOUDY    76  49  38 W13       29.70S
STURGIS*       MOSUNNY   72  56  57 NW7       29.70S
THREE RIVERS*  FAIR      75  53  45 NW9G16    29.71S

$$
OHZ001>008-015>018-024>025-240000-
NORTHWEST OHIO

CITY           SKY/WX    TMP DP  RH WIND       PRES   REMARKS
WAUSEON*       FAIR      75  63  64 W13G18    29.66S
DEFIANCE       CLOUDY    72  62  71 NW9       29.67F
FINDLAY        CLOUDY    70  65  84 SW8       29.67S
TOLEDO EXPRESS CLOUDY    73  68  84 W8        29.65S
TOLEDO METCALF CLOUDY    74  70  87 SW12      29.66R
LIMA           CLOUDY    69  68  96 W9        29.69S

$$
AND FOR LAKE MICHIGAN COASTAL AND OPEN LAKE BUOY OBSERVATIONS

STATION/POSITION TEMP    WIND        PRES    VSBY  WAVE
                 AIR SEA DIR/SP/G                  HT/PER
                 (F)     (DEG/KT/KT) (MB)    (MI)  (FT/S)
CALUMET HARBOR    75      90/  4/  6 1005.8F
MICHIGAN CITY     71      50/  5/  6   N/A
BURNS HARBOR      75      70/  5/  5 1006.8F
SOUTH LAKE BUOY   66 63  220/  8/  8 1005.3          0
4 MI NW BRIDGMAN  69 69  200/  4/  6 1005.9          1/ 3
MICHIGAN CITY     70 70  130/  2/  4   N/A           1

$$
&&




USA.gov is the U.S. government's official web portal to all federal, state and local government web resources and services.